KINEIS-3E

Last updated on Sun Apr 12 2026 00:02:47 GMT+0000 (Coordinated Universal Time)

1 61222U 24172C 26101.51443241 .00001697 00000+0 27601-3 0 9994 2 61222 98.0337 192.1330 0001196 87.9949 272.1395 14.72350230 83543
UTC large
Height (km)
Speed (km/s)
/
Latitude / Longitude
Inclination (degrees)
Orbital Period (minutes)
Azimuth
Elevation
Range (km)
Doppler Factor

Next 0 passes for location: London (51.5072 / 0.1276)

Sorry there are no passes over London.
KINEIS-3E